Location: Cochrane
(49.0650°N, 81.0299°W)
Time: 12:21:58
(UTC-04:00)

ISS - Visible Passes

Search period start: 17 July 2019 00:00
Search period end: 27 July 2019 00:00
Orbit: 409 x 418 km, 51.6° (Epoch: 18 July)

Date Brightness Start Highest point End Pass type
(mag) Time Alt. Az. Time Alt. Az. Time Alt. Az.
17 Jul -3.3 00:54:22 10° W 00:57:41 62° N 01:00:59 10° ENE visible
17 Jul -3.2 02:31:19 10° WNW 02:34:37 57° N 02:37:54 10° E visible
17 Jul -3.7 04:08:04 10° WNW 04:11:20 53° SSW 04:14:33 10° SE visible
17 Jul -2.9 22:28:57 10° SSW 22:31:51 28° SE 22:34:46 10° E visible
18 Jul -3.7 00:05:00 10° WSW 00:08:20 77° NNW 00:11:41 10° ENE visible
18 Jul -3.0 01:41:59 10° WNW 01:45:15 52° N 01:48:31 10° E visible
18 Jul -4.0 03:18:44 10° WNW 03:22:04 77° SSW 03:25:22 10° ESE visible
18 Jul -2.2 04:56:04 10° W 04:58:20 17° SW 05:00:35 10° S visible
18 Jul -3.9 23:15:41 10° WSW 23:19:02 81° SSE 23:22:22 10° ENE visible
19 Jul -3.0 00:52:35 10° W 00:55:52 52° N 00:59:08 10° ENE visible
19 Jul -3.8 02:29:25 10° WNW 02:32:46 80° NNE 02:36:04 10° ESE visible
19 Jul -2.8 04:06:23 10° W 04:09:12 26° SW 04:12:02 10° SSE visible
19 Jul -3.7 22:26:28 10° SW 22:29:45 57° SSE 22:33:01 10° ENE visible
20 Jul -3.1 00:03:10 10° W 00:06:28 56° N 00:09:46 10° ENE visible
20 Jul -3.4 01:40:05 10° WNW 01:43:24 64° NNE 01:46:00 15° E visible
20 Jul -2.4 03:16:53 10° WNW 03:18:32 24° W 03:18:32 24° W visible
20 Jul -3.4 23:13:45 10° W 23:17:05 66° NNW 23:20:24 10° ENE visible
21 Jul -3.1 00:50:43 10° WNW 00:54:01 55° N 00:56:11 19° E visible
21 Jul -2.1 02:27:29 10° WNW 02:28:56 23° W 02:28:56 23° W visible
21 Jul -3.7 22:24:22 10° WSW 22:27:43 82° NNW 22:31:03 10° ENE visible
22 Jul -3.0 00:01:19 10° WNW 00:04:36 52° N 00:07:41 11° E visible
22 Jul -3.0 01:38:06 10° WNW 01:40:28 43° WNW 01:40:28 43° WNW visible
22 Jul -3.0 23:11:54 10° W 23:15:11 53° N 23:18:27 10° ENE visible
23 Jul -3.7 00:48:44 10° WNW 00:52:05 75° NNE 00:52:16 72° NE visible
23 Jul -3.1 22:22:26 10° W 22:25:44 58° N 22:29:03 10° ENE visible
23 Jul -3.3 23:59:22 10° WNW 00:02:41 61° N 00:04:13 28° E visible
24 Jul -1.5 01:36:07 10° WNW 01:37:00 16° W 01:37:00 16° W visible
24 Jul -3.1 23:09:57 10° WNW 23:13:14 54° N 23:16:14 12° E visible
25 Jul -2.9 00:46:42 10° WNW 00:49:02 40° W 00:49:02 40° W visible
25 Jul -3.0 22:20:29 10° WNW 22:23:47 52° N 22:27:03 10° ENE visible
25 Jul -3.9 23:57:17 10° WNW 00:00:39 90° W 00:01:06 64° ESE visible
26 Jul -3.6 23:07:53 10° WNW 23:11:13 70° NNE 23:13:12 22° E visible
